Location: Elbart
(49.6135°N, 11.9134°E)
Time: 09:39:51
(UTC+00:00)

STARLINK-29 - Pass Details

Date: 09 April 2020
Orbit: 387 x 401 km, 53.0° (Epoch: 26 May)

Event Time Altitude Azimuth Distance (km) Brightness Sun altitude
Rises 20:12:36 0° 258° (WSW) 2,287 7.3 -20.2°
Reaches altitude 10° 20:14:41 10° 261° (W) 1,436 6.3 -20.5°
Maximum altitude 20:17:52 62° 343° (NNW) 452 3.3 -20.9°
Enters shadow 20:17:55 62° 349° (N) 452 3.3 -20.9°
